Regional Weather Roundup
Issued by NWS

Home | Current Version | Previous Version | Text Only | Print | Product List | Glossary On
Versions: 1 2 3 4 5 6 7 8 9 10 11 12 13 14 15 16 17 18 19 20 21 22 23 24 25 26 27 28 29 30 31 32 33 34 35 36 37 38 39 40 41 42 43 44 45 46 47 48 49 50
000
ASUS43 KDTX 192110
RWRMI
MICHIGAN HOURLY REGIONAL WEATHER ROUNDUP
NATIONAL WEATHER SERVICE DETROIT/PONTIAC MI
500 PM EDT THU OCT 19 2017

NOTE: "FAIR" INDICATES FEW OR NO CLOUDS BELOW 12,000 FEET WITH NO
SIGNIFICANT WEATHER AND/OR OBSTRUCTION TO VISIBILITY.

MIZ047>049-052>055-059>063-066>070-074>076-081>083-192200-
SOUTHEAST LOWER MICHIGAN

CITY           SKY/WX    TMP DP  RH WIND       PRES   REMARKS
ADRIAN         SUNNY     68  34  28 NW13      30.14R
ALMA           SUNNY     65  17  16 W14G20    30.11S
ANN ARBOR      SUNNY     67  35  30 SW13      30.11S
BAD AXE        MOSUNNY   65  21  19 W13       30.07S
CARO           MOSUNNY   66  21  17 W12G18    30.08R
DETROIT CITY   SUNNY     69  35  28 W9        30.09S
DETROIT        PTSUNNY   70  37  29 W15       30.11R
FLINT          SUNNY     66  26  22 W16       30.11R
GROSSE ILE     SUNNY     71  39  32 W10G16    30.09S
HILLSDALE      SUNNY     68  32  26 W12       30.14S
HOWELL         SUNNY     66  21  17 W10       30.12R

CITY           SKY/WX    TMP DP  RH WIND       PRES   REMARKS
JACKSON        SUNNY     66  29  24 W13       30.14R
LAMBERTVILLE   SUNNY     73  37  27 W13G21    30.11S
LANSING        SUNNY     66  25  21 W14       30.13S
LAPEER         FAIR      67  27  22 W14G21    30.10R
MASON          SUNNY     67  28  22 W12G21    30.13R
MONROE         SUNNY     73  35  24 NW12      30.10R
MT. CLEMENS    PTSUNNY   69  38  31 W10       30.07S
PONTIAC        PTSUNNY   67  31  26 W14       30.10R
PORT HOPE        N/A     64  27  24 W9        30.04S
PORT HURON     CLOUDY    68  32  26 W5        30.08R
TRI CITIES     SUNNY     67  24  19 W13G22    30.09R
MIDLAND        FAIR      67  25  20 W12       30.08S
TROY           SUNNY     69  30  23 W7        30.12R
SAGINAW HB     MOSUNNY   66  27  22 W12G21    30.08S
$$
MIZ043>046-050>051-056>058-064>065-071>073-077>080-192200-
SOUTHWEST LOWER MICHIGAN

CITY           SKY/WX    TMP DP  RH WIND       PRES   REMARKS
BATTLE CREEK   SUNNY     65  24  21 NW10      30.16R
BENTON HARBOR  SUNNY     62  35  36 W5        30.18S
BIG RAPIDS     SUNNY     63  21  20 W12       30.12R
COLDWATER      SUNNY     67  27  22 W8        30.16R
FREMONT        FAIR      64  30  28 W10       30.14S
HOLLAND        SUNNY     63  34  33 W9        30.18R
GRAND RAPIDS   PTSUNNY   64  32  30 NW12      30.15R
IONIA          FAIR      65  32  28 W8        30.13R
KALAMAZOO      SUNNY     65  23  20 NW10      30.17R
LUDINGTON      MOSUNNY   61  36  40 SW10      30.12S
MARSHALL       SUNNY     65  26  22 W10       30.14S
MOUNT PLEASANT SUNNY     67  17  14 W10G18    30.09S
MUSKEGON       MOSUNNY   62  36  37 W8        30.16S
SOUTH HAVEN    SUNNY     62  38  40 W7        30.18S
$$
MIZ016>042-192200-
NORTHERN LOWER MICHIGAN

CITY           SKY/WX    TMP DP  RH WIND       PRES   REMARKS
ALPENA         CLOUDY    63  28  26 W10G20    30.03R
BEAVER ISLAND  PTSUNNY   61  39  45 SW14G23   30.04R
BELLAIRE       MOSUNNY   61  30  31 W3        30.08R
CADILLAC       SUNNY     62  20  19 W13G20    30.10R
CHARLEVOIX     CLOUDY    59  40  48 W16G23    30.09R
FRANKFORT      SUNNY     61  43  50 SW6       30.10S
GAYLORD        PTSUNNY   58  26  29 W16G23    30.06R
GRAYLING       CLOUDY    62  15  16 W14G20    30.08R
HARBOR SPRINGS CLOUDY    59  37  43 W10G23    30.05R
HOUGHTON LAKE  MOSUNNY   62  19  19 W12       30.08R
MANISTEE       MOSUNNY   62  32  32 SW9       30.11S
OSCODA         MOSUNNY   65  21  18 W12G24    30.03S
PELLSTON       CLOUDY    61  32  33 W14G21    30.04R
ROGERS CITY    CLOUDY    61  33  34 W12G20    30.03R
TRAVERSE CITY  PTSUNNY   62  30  29 W16       30.07R
$$
MIZ007>008-015-192200-
EASTERN UPPER MICHIGAN

CITY           SKY/WX    TMP DP  RH WIND       PRES   REMARKS
KINROSS        CLOUDY    60  24  25 W17G28    29.97F
MACKINAC ISLAN MOSUNNY   60  32  34 W13G21    30.01R
NEWBERRY       CLOUDY    60  12  15 W20G26    30.00R
S. S. MARIE    CLOUDY    59  31  34 W12G22    29.96F
MUNISING         N/A     64  29  26 NW7       30.00S
$$
MIZ004>006-011>014-085-192200-
CENTRAL UPPER MICHIGAN

CITY           SKY/WX    TMP DP  RH WIND       PRES   REMARKS
MANISTIQUE     PTSUNNY  N/A N/A N/A W10       30.02R
ESCANABA       MOSUNNY   66  27  23 W10       30.03S
MENOMINEE      MOSUNNY   68  29  23 W8        30.06S
SAWYER-GWINN   SUNNY     63  25  23 W9G21     30.02R
$$
MIZ001>003-009>011-084-192200-
WESTERN UPPER MICHIGAN

CITY           SKY/WX    TMP DP  RH WIND       PRES   REMARKS
IRON MOUNTAIN  SUNNY     66  25  21 W8        30.02F
HOUGHTON       MOSUNNY   60  25  26 W18G25    29.97S
COPPER HARBOR    N/A     60  22  23 NW9G23    29.95R
IRONWOOD       SUNNY     67  31  26 SW10      29.98F
$$

ABBREVIATIONS USED IN REMARKS
   TC - TEMPERATURE IN CELSIUS
  WCI - WIND CHILL INDEX
   HX - HEAT INDEX
  VSB - VISIBILITY





USA.gov is the U.S. government's official web portal to all federal, state and local government web resources and services.